Le nostre stazioni meteo in Italia

Pubblicità
Il mio iltempo24.it
Logan Botanic Garden, Gran Bretagna (99193): Temperatura & dewpoint: 21.04.2017 17:00:00 - 27.04.2017 17:00:00 (BST)Logan Botanic Garden, Gran Bretagna (99193): Temperatura -20cm: 21.04.2017 17:00:00 - 27.04.2017 17:00:00 (BST)Logan Botanic Garden, Gran Bretagna (99193): precipitazioni: 21.04.2017 17:00:00 - 27.04.2017 17:00:00 (BST)
Data & Tempo tt [°C] td [°C] tt -20cm [°C] rr [mm]
27.04.2017 17:00:00 10,1 6,4 - 0,0
27.04.2017 16:00:00 10,1 6,3 - 0,0
27.04.2017 15:00:00 9,6 6,1 - 0,0
27.04.2017 14:00:00 9,7 5,7 - 0,0
27.04.2017 13:00:00 9,1 5,7 - 0,0
27.04.2017 12:00:00 9,3 5,8 - 0,0
27.04.2017 11:00:00 9,6 5,8 - 0,0
27.04.2017 10:00:00 9,0 5,1 10,0 0,0
27.04.2017 09:00:00 8,8 5,8 - 0,0
27.04.2017 08:00:00 7,6 5,4 - 0,2
27.04.2017 07:00:00 7,0 5,2 - 0,0
27.04.2017 06:00:00 7,4 6,4 - 0,0
27.04.2017 05:00:00 7,4 5,4 - 0,0
27.04.2017 04:00:00 7,4 5,3 - 0,0
27.04.2017 03:00:00 7,3 5,0 - 0,0
27.04.2017 02:00:00 6,6 4,7 - 0,0
27.04.2017 01:00:00 5,7 3,5 - 0,0
27.04.2017 00:00:00 5,6 3,7 - 0,0
26.04.2017 23:00:00 4,6 2,6 - 0,0
26.04.2017 22:00:00 5,6 2,9 - 0,0
26.04.2017 21:00:00 6,5 2,8 - 0,0
26.04.2017 20:00:00 7,6 2,6 - 0,0
26.04.2017 19:00:00 8,2 2,9 - 0,0
26.04.2017 18:00:00 8,1 2,2 - 0,0
26.04.2017 17:00:00 9,4 0,3 - 0,0
26.04.2017 16:00:00 8,0 1,4 - 0,0
26.04.2017 15:00:00 8,3 2,1 - 0,0
26.04.2017 14:00:00 8,0 2,3 - 0,0
26.04.2017 13:00:00 8,2 -0,5 - 0,0
26.04.2017 12:00:00 7,2 -3,1 - 0,0
26.04.2017 11:00:00 6,8 -1,9 - 0,0
26.04.2017 10:00:00 6,1 -1,6 9,9 0,0
26.04.2017 09:00:00 5,7 -1,3 - 0,0
26.04.2017 08:00:00 4,8 -0,9 - 0,0
26.04.2017 07:00:00 1,8 -2,7 - 0,0
26.04.2017 06:00:00 1,7 -3,7 - 0,0
26.04.2017 05:00:00 1,5 -3,3 - 0,0
26.04.2017 04:00:00 2,6 -3,2 - 0,0
26.04.2017 03:00:00 2,9 -3,1 - 0,0
26.04.2017 02:00:00 2,7 -3,1 - 0,0
26.04.2017 01:00:00 3,3 -2,9 - 0,0
26.04.2017 00:00:00 4,1 -2,4 - 0,0
25.04.2017 23:00:00 3,7 -2,0 - 0,0
25.04.2017 22:00:00 4,7 -1,8 - 0,0
25.04.2017 21:00:00 5,7 -1,3 - 0,0
25.04.2017 20:00:00 6,9 -3,0 - 0,0
25.04.2017 19:00:00 8,4 -0,5 - 0,0
25.04.2017 18:00:00 8,7 -2,4 - 0,0
25.04.2017 17:00:00 9,2 -0,6 - 0,0
25.04.2017 16:00:00 8,4 -0,9 - 0,0
25.04.2017 15:00:00 10,0 0,1 - 0,0
25.04.2017 14:00:00 9,0 -0,7 - 0,0
25.04.2017 13:00:00 8,5 -2,2 - 0,0
25.04.2017 12:00:00 8,2 -1,7 - 0,0
25.04.2017 11:00:00 7,5 -1,8 - 0,0
25.04.2017 10:00:00 6,8 -0,9 10,4 0,0
25.04.2017 09:00:00 5,8 0,5 - 0,0
25.04.2017 08:00:00 5,1 1,3 - 0,0
25.04.2017 07:00:00 3,5 0,2 - 0,0
25.04.2017 06:00:00 2,6 -1,7 - 0,0
25.04.2017 05:00:00 2,4 -2,9 - 0,0
25.04.2017 04:00:00 2,6 -3,9 - 0,0
25.04.2017 03:00:00 3,1 -3,9 - 0,0
25.04.2017 02:00:00 4,1 -0,7 - 0,0
25.04.2017 01:00:00 4,4 0,1 - 0,0
25.04.2017 00:00:00 4,0 1,3 - 0,4
24.04.2017 23:00:00 4,5 0,5 - 0,0
24.04.2017 22:00:00 4,8 1,9 - 0,0
24.04.2017 21:00:00 4,8 0,2 - 0,0
24.04.2017 20:00:00 4,7 -1,7 - 0,0
24.04.2017 19:00:00 5,0 -4,8 - 0,0
24.04.2017 18:00:00 6,2 -1,7 - 0,0
24.04.2017 17:00:00 6,4 -2,0 - 0,0
24.04.2017 16:00:00 7,7 -3,1 - 0,0
24.04.2017 15:00:00 8,3 -3,3 - 0,0
24.04.2017 14:00:00 8,1 0,3 - 0,0
24.04.2017 13:00:00 8,2 0,1 - 0,0
24.04.2017 12:00:00 8,1 -0,2 - 0,0
24.04.2017 11:00:00 5,8 1,5 - 0,0
24.04.2017 10:00:00 7,7 1,5 10,7 0,0
24.04.2017 09:00:00 7,4 2,2 - 0,0
24.04.2017 08:00:00 7,9 4,4 - 0,0
24.04.2017 07:00:00 6,8 5,0 - 0,0
24.04.2017 06:00:00 8,1 6,9 - 0,0
24.04.2017 05:00:00 8,3 6,7 - 0,0
24.04.2017 04:00:00 8,3 6,7 - 0,0
24.04.2017 03:00:00 8,4 6,9 - 0,2
24.04.2017 02:00:00 8,8 6,9 - 0,0
24.04.2017 01:00:00 8,7 7,3 - 0,0
24.04.2017 00:00:00 8,5 7,4 - 0,0
23.04.2017 23:00:00 9,0 6,8 - 0,0
23.04.2017 22:00:00 7,9 6,3 - 0,0
23.04.2017 21:00:00 9,0 6,8 - 0,0
23.04.2017 20:00:00 8,9 8,4 - 0,0
23.04.2017 19:00:00 8,7 8,1 - 0,4
23.04.2017 18:00:00 8,8 6,9 - 0,0
23.04.2017 17:00:00 8,9 6,0 - 0,0
23.04.2017 16:00:00 9,4 3,8 - 0,0
23.04.2017 15:00:00 9,2 4,0 - 0,0
23.04.2017 14:00:00 9,5 3,8 - 0,0
23.04.2017 13:00:00 9,3 3,5 - 0,0
23.04.2017 12:00:00 9,5 4,1 - 0,0
23.04.2017 11:00:00 9,3 4,3 - 0,0
23.04.2017 10:00:00 8,6 2,9 10,7 0,0
23.04.2017 09:00:00 8,1 3,0 - 0,0
23.04.2017 08:00:00 6,7 3,4 - 0,0
23.04.2017 07:00:00 4,8 2,7 - 0,0
23.04.2017 06:00:00 5,0 2,6 - 0,0
23.04.2017 05:00:00 5,2 2,6 - 0,0
23.04.2017 04:00:00 5,1 2,6 - 0,0
23.04.2017 03:00:00 4,5 2,3 - 0,0
23.04.2017 02:00:00 5,0 2,3 - 0,0
23.04.2017 01:00:00 5,4 2,7 - 0,0
23.04.2017 00:00:00 5,8 2,2 - 0,0
22.04.2017 23:00:00 6,3 2,1 - 0,0
22.04.2017 22:00:00 6,5 2,9 - 0,0
22.04.2017 21:00:00 7,2 3,8 - 0,0
22.04.2017 20:00:00 8,3 4,1 - 0,0
22.04.2017 19:00:00 9,3 3,0 - 0,0
22.04.2017 18:00:00 9,1 3,8 - 0,0
22.04.2017 17:00:00 9,3 3,9 - 0,0
22.04.2017 16:00:00 9,5 3,7 - 0,0
22.04.2017 15:00:00 9,3 3,5 - 0,0
22.04.2017 14:00:00 9,8 1,8 - 0,0
22.04.2017 13:00:00 10,0 2,4 - 0,0
22.04.2017 12:00:00 10,1 1,7 - 0,0
22.04.2017 11:00:00 9,5 0,4 - 0,0
22.04.2017 10:00:00 8,9 1,5 10,7 0,0
22.04.2017 09:00:00 8,1 3,0 - 0,0
22.04.2017 08:00:00 7,2 3,6 - 0,0
22.04.2017 07:00:00 5,6 2,7 - 0,0
22.04.2017 06:00:00 5,1 2,6 - 0,0
22.04.2017 05:00:00 5,3 2,7 - 0,0
22.04.2017 04:00:00 5,2 2,7 - 0,0
22.04.2017 03:00:00 6,6 3,1 - 0,0
22.04.2017 02:00:00 6,7 3,3 - 0,0
22.04.2017 01:00:00 7,3 4,0 - 0,0
22.04.2017 00:00:00 7,9 4,8 - 0,0
21.04.2017 23:00:00 7,7 5,3 - 0,0
21.04.2017 22:00:00 8,0 6,0 - 0,0
21.04.2017 21:00:00 8,5 6,1 - 0,0
21.04.2017 20:00:00 8,8 6,2 - 0,0
21.04.2017 19:00:00 9,5 6,7 - 0,0
21.04.2017 18:00:00 10,3 7,7 - 0,0
21.04.2017 17:00:00 9,9 8,4 - 0,0

tt = Temperatura
td = dewpoint
tt -20cm = Temperatura -20cm
rr = precipitazioni

Stazioni seguenti

WeatherPro
AMSI
MeteoEarth